TimeCST,TemperatureF,Dew PointF,Humidity,Sea Level PressureIn,VisibilityMPH,Wind Direction,Wind SpeedMPH,Gust SpeedMPH,PrecipitationIn,Events,Conditions,WindDirDegrees,DateUTC
12:54 AM,5.0,-2.0,73,30.45,10.0,Calm,Calm,-,N/A,,Clear,0,2013-02-21 06:54:00
1:54 AM,1.9,-0.9,88,30.46,10.0,North,4.6,-,N/A,,Clear,360,2013-02-21 07:54:00
2:54 AM,-0.0,-4.0,83,30.46,10.0,Calm,Calm,-,N/A,,Clear,0,2013-02-21 08:54:00
3:54 AM,1.0,-2.9,83,30.47,10.0,NNW,4.6,-,N/A,,Clear,340,2013-02-21 09:54:00
4:54 AM,-0.0,-4.0,83,30.49,10.0,North,5.8,-,N/A,,Clear,350,2013-02-21 10:54:00
5:54 AM,-2.9,-7.1,82,30.50,10.0,Calm,Calm,-,N/A,,Clear,0,2013-02-21 11:54:00
6:54 AM,1.9,-2.0,83,30.43,10.0,NNE,5.8,-,N/A,,Clear,30,2013-02-21 12:54:00
7:54 AM,1.9,-2.0,83,30.45,10.0,Calm,Calm,-,N/A,,Clear,0,2013-02-21 13:54:00
8:31 AM,3.2,-0.4,85,30.42,10.0,Calm,Calm,-,N/A,,Clear,0,2013-02-21 14:31:00
8:54 AM,3.9,-0.0,84,30.51,10.0,Calm,Calm,-,N/A,,Clear,0,2013-02-21 14:54:00
9:54 AM,9.0,1.0,70,30.50,10.0,NNW,3.5,-,N/A,,Clear,340,2013-02-21 15:54:00
10:54 AM,12.9,3.0,65,30.46,10.0,Calm,Calm,-,N/A,,Clear,0,2013-02-21 16:54:00
11:54 AM,14.0,5.0,67,30.46,10.0,Calm,Calm,-,N/A,,Clear,0,2013-02-21 17:54:00
12:54 PM,18.0,6.1,60,30.41,10.0,East,3.5,-,N/A,,Clear,80,2013-02-21 18:54:00
1:54 PM,21.0,8.1,57,30.37,10.0,East,5.8,-,0.00,,Clear,80,2013-02-21 19:54:00
2:54 PM,23.0,10.0,58,30.33,10.0,Calm,Calm,-,0.00,,Clear,0,2013-02-21 20:54:00
3:54 PM,24.1,10.0,55,30.33,10.0,Calm,Calm,-,N/A,,Clear,0,2013-02-21 21:54:00
4:54 PM,25.0,12.0,58,30.32,10.0,Calm,Calm,-,N/A,,Clear,0,2013-02-21 22:54:00
5:54 PM,24.1,12.0,60,30.32,10.0,ESE,8.1,-,N/A,,Clear,120,2013-02-21 23:54:00
6:54 PM,21.0,12.9,71,30.28,10.0,ESE,4.6,-,N/A,,Clear,110,2013-02-22 00:54:00
7:54 PM,23.0,15.1,72,30.27,10.0,East,9.2,-,N/A,,Mostly Cloudy,80,2013-02-22 01:54:00
8:54 PM,23.0,17.1,78,30.25,10.0,ENE,19.6,26.5,N/A,,Overcast,70,2013-02-22 02:54:00
9:07 PM,21.2,17.6,86,30.15,10.0,East,16.1,-,N/A,,Overcast,80,2013-02-22 03:07:00
9:54 PM,21.0,18.0,88,30.22,10.0,East,17.3,28.8,N/A,,Overcast,80,2013-02-22 03:54:00
10:27 PM,21.2,17.6,86,30.11,10.0,East,21.9,29.9,N/A,,Overcast,90,2013-02-22 04:27:00
10:54 PM,21.0,18.0,88,30.18,10.0,East,15.0,23.0,N/A,,Overcast,80,2013-02-22 04:54:00
11:52 PM,21.2,17.6,86,30.10,10.0,East,12.7,23.0,N/A,,Overcast,90,2013-02-22 05:52:00